Wind_Speed
17 17 17 18 19 19 20 20 20 20 20 20 19 19 19 18 18 18 18 18 18 17 18 18 18 19 19 19 19 19 18 18 18 19 19 19 19 20 20 20 21 21 20
18 18 19 18 18 18 19 19 19 20 20 20 21 21 21 21 20 20 19 19 19 19 19 19 19 20 20 20 20 19 19 19 20 20 20 20 20 21 21 22 22 22 21
18 19 20 19 19 19 19 19 20 20 21 21 22 22 22 22 22 22 21 21 20 20 20 19 20 20 20 20 20 20 20 21 21 22 22 22 22 22 23 23 23 23 22
18 18 19 20 20 21 21 21 22 22 22 23 23 23 24 24 24 24 23 23 22 22 21 21 20 21 21 21 21 21 21 21 22 22 22 23 23 23 23 23 23 23 23
19 18 19 20 20 21 22 23 23 23 23 24 24 24 25 25 25 25 25 25 24 23 23 22 22 22 22 23 23 23 22 22 22 22 23 23 23 23 23 23 24 24 24
20 20 20 20 20 21 22 22 23 24 24 25 25 25 26 26 26 26 26 26 26 25 25 24 24 23 23 24 23 23 23 22 22 23 23 23 23 23 23 23 23 24 24
23 22 22 22 21 21 21 21 22 23 23 24 25 26 26 27 27 27 27 27 27 27 26 26 25 25 24 24 24 23 23 22 23 24 23 23 23 23 23 24 25 25 26
26 25 24 24 23 23 23 23 23 23 23 23 24 25 25 26 27 27 28 28 28 27 27 27 26 26 25 25 24 23 23 22 23 24 24 23 24 24 25 26 27 28 28
28 27 26 26 26 25 25 25 24 24 24 24 24 24 24 25 25 26 27 27 27 27 27 27 27 26 26 25 24 23 23 23 24 24 25 25 25 26 28 29 29 30 30
28 28 28 28 27 27 27 26 26 26 26 25 25 24 24 24 24 24 25 25 26 26 26 27 27 26 26 25 24 24 23 24 25 25 26 27 28 28 29 30 30 30 29
27 28 29 28 28 28 28 28 28 27 27 26 26 26 25 25 24 24 24 24 24 24 25 26 26 26 26 26 26 25 25 25 26 27 28 29 29 30 30 30 30 29 29
27 28 28 27 27 28 28 28 28 28 28 27 27 26 26 25 25 25 24 24 24 24 25 26 26 27 28 28 28 27 27 28 28 29 30 30 30 31 31 31 30 30 29
26 27 27 26 26 27 27 28 28 28 28 28 28 27 27 26 26 25 25 25 25 25 25 26 26 27 29 29 30 30 31 31 31 32 33 33 32 32 32 32 31 30 30
26 26 27 26 26 27 27 28 28 28 29 29 29 28 28 27 27 27 26 26 26 26 26 27 27 28 29 30 31 32 33 34 34 35 35 35 34 34 33 33 33 32 32
27 27 27 27 27 28 28 29 28 29 29 29 29 29 29 28 28 28 27 27 27 27 28 28 28 29 30 30 32 33 34 35 36 37 37 37 37 36 35 34 34 34 34
29 29 28 28 28 29 29 29 29 29 29 29 29 29 29 29 29 29 29 29 29 29 29 29 30 30 31 31 32 33 34 36 37 38 38 38 38 37 36 36 35 35 36
31 31 30 29 29 29 29 30 30 30 29 29 29 29 29 30 30 30 30 30 31 31 30 31 31 32 32 33 33 34 35 36 37 38 38 39 38 38 38 38 37 37 37
33 32 32 31 30 30 30 31 31 31 30 30 29 29 29 30 31 31 32 32 32 32 32 32 32 33 33 34 35 35 36 37 38 38 39 39 39 39 40 40 40 40 40
35 35 34 33 32 31 32 33 33 33 32 31 31 31 31 31 31 32 33 33 33 33 33 33 34 34 34 35 35 36 37 38 39 40 40 40 40 41 41 41 42 42 43
37 37 37 36 35 34 34 35 35 34 33 33 33 33 33 33 33 33 33 33 33 33 33 34 34 34 34 35 35 36 37 37 39 40 41 42 42 42 43 43 44 44 44
39 39 39 38 38 37 37 36 37 37 37 37 37 37 36 35 35 35 35 35 34 34 34 34 34 35 35 35 35 36 37 38 39 40 41 42 43 43 44 44 45 45 46
41 42 42 41 41 41 40 40 40 41 42 41 40 40 38 38 38 38 37 37 36 36 35 35 36 36 36 36 37 37 38 39 40 40 41 42 43 44 44 45 46 47 47
44 44 44 45 45 44 44 44 44 44 43 43 42 42 41 41 41 40 40 39 38 37 37 36 36 36 37 37 37 38 39 40 41 41 42 43 44 45 46 46 47 48 49
46 47 47 48 48 48 48 47 47 46 45 45 45 45 45 45 44 43 42 41 39 38 38 38 37 37 38 38 38 39 40 41 41 42 43 44 45 46 47 48 49 50 50
49 50 50 51 52 52 52 51 51 50 49 48 47 47 47 47 46 45 44 43 42 41 40 39 39 38 38 39 40 40 41 42 42 43 44 44 46 47 48 50 51 52 53
52 53 54 55 55 56 56 56 55 54 52 51 49 49 49 49 48 47 46 45 44 43 42 41 40 40 40 40 41 41 42 43 44 44 45 45 46 48 50 52 53 55 55
Wind_Direction
253 255 258 260 262 264 265 266 268 269 269 268 268 270 272 275 279 282 283 283 281 276 273 271 270 269 270 272 274 277 280 281 282 283 285 286 287 288 289 289 290 289 288
256 256 258 260 263 265 267 268 269 270 270 268 267 268 269 271 273 276 278 279 277 274 272 270 271 271 272 273 275 278 279 281 282 283 285 285 285 286 286 287 288 288 288
255 256 258 260 263 265 267 269 271 272 272 271 269 269 269 269 271 273 274 274 273 271 269 268 269 270 271 272 274 275 276 278 280 281 282 284 285 286 287 287 287 287 287
256 256 258 260 262 265 267 270 272 274 274 274 273 271 270 270 271 271 271 271 270 268 266 265 266 267 268 269 270 272 273 275 277 279 281 282 285 286 286 286 286 287 287
255 255 258 260 263 265 267 270 273 276 277 277 276 275 273 272 271 271 271 271 269 267 265 264 264 264 265 267 269 271 272 274 277 279 281 283 285 285 286 286 287 287 286
253 255 257 260 263 266 268 271 274 276 278 279 279 278 276 275 274 273 272 271 270 268 266 265 265 265 266 267 269 271 273 275 277 278 280 283 284 285 286 287 288 288 287
253 255 256 259 262 266 269 273 275 277 279 280 281 281 280 278 277 275 274 272 272 270 268 267 267 267 267 268 270 272 274 276 278 279 280 281 282 283 284 286 287 287 288
255 257 259 260 262 265 269 272 276 278 280 281 282 283 283 282 279 278 276 275 273 272 271 269 268 268 268 269 271 272 274 276 277 278 280 281 282 283 284 286 286 286 285
256 258 259 261 262 265 267 270 273 276 278 281 282 283 284 284 282 280 278 277 275 273 272 271 270 269 269 269 270 272 273 275 276 278 280 282 283 284 286 287 287 285 284
255 257 258 261 263 266 268 269 271 273 276 278 281 282 284 284 284 282 281 279 276 274 273 272 271 270 268 268 269 270 271 273 275 278 280 282 285 286 287 288 287 286 285
251 254 257 260 263 265 268 269 271 273 275 277 279 280 282 283 284 283 282 280 278 277 276 274 272 269 267 266 267 268 269 272 275 277 280 283 286 288 289 288 288 287 286
248 252 256 259 261 264 267 269 271 273 275 276 277 279 281 282 283 283 282 281 279 279 278 277 274 271 268 266 266 266 268 271 273 276 280 283 285 287 288 288 287 286 285
249 252 256 259 261 263 266 268 271 273 274 276 277 278 279 280 282 282 282 281 280 280 281 280 278 275 271 268 266 266 267 270 273 276 279 281 284 285 286 287 286 285 283
250 252 255 258 261 262 265 267 270 272 273 274 276 278 278 278 279 280 281 281 281 281 282 282 281 279 276 272 270 269 269 271 272 275 278 280 282 284 285 286 285 284 282
248 250 252 255 258 261 264 267 269 271 273 274 275 276 276 276 277 278 280 280 280 280 280 282 281 280 279 277 275 274 273 274 274 276 277 279 281 283 284 285 284 283 281
250 250 251 253 255 258 262 265 267 270 271 273 274 275 275 275 276 277 278 279 279 278 279 280 281 282 281 280 279 278 277 277 277 277 278 280 281 282 283 284 283 282 281
251 252 252 252 253 256 259 262 264 266 268 270 272 275 276 276 275 275 276 277 278 279 280 281 281 281 282 282 283 282 281 280 280 279 279 280 281 282 282 283 283 283 282
250 251 252 252 252 253 255 258 260 263 265 268 270 273 275 275 274 274 274 275 277 279 280 281 282 282 283 283 284 284 283 282 282 281 281 281 281 282 283 283 283 283 283
249 250 250 251 251 251 253 255 258 260 263 266 269 271 272 272 273 273 273 274 275 277 278 280 282 283 284 284 284 285 285 285 284 283 282 282 282 283 283 284 284 284 283
247 248 249 250 251 252 252 255 258 260 262 264 266 267 269 270 272 273 273 273 274 276 278 281 282 284 285 286 286 286 287 287 286 285 284 283 283 283 284 285 285 285 284
248 248 249 250 251 252 253 256 258 261 261 262 263 266 268 270 271 272 272 273 274 276 278 280 282 284 286 287 288 288 288 289 289 288 287 285 285 285 286 286 286 286 286
250 250 250 251 251 252 253 255 257 259 261 263 264 266 268 269 270 271 272 273 274 275 277 279 281 283 285 288 289 289 290 290 290 290 289 288 288 288 289 289 289 288 288
253 253 253 253 253 253 254 255 256 258 261 263 265 266 266 266 266 268 270 271 272 273 275 277 280 282 285 287 288 289 290 290 291 290 290 290 290 290 290 290 290 290 289
255 255 255 255 255 255 255 256 257 259 261 263 263 263 263 264 265 266 268 269 270 272 274 277 279 282 284 286 287 289 289 290 290 290 290 290 291 291 291 291 291 291 290
258 259 258 258 258 257 257 257 257 259 259 260 261 262 263 263 263 264 265 267 269 271 274 276 279 281 283 286 287 288 289 290 290 291 291 291 292 293 293 293 292 291 291
261 261 260 260 259 259 258 257 258 258 258 258 259 259 260 261 261 262 263 265 267 270 273 276 278 281 283 285 287 288 289 290 291 292 292 293 293 294 294 294 293 293 292
Height
5872 5872 5873 5874 5875 5876 5876 5876 5877 5877 5877 5878 5878 5878 5878 5878 5879 5878 5878 5877 5877 5877 5876 5876 5875 5875 5875 5874 5874 5874 5873 5873 5872 5871 5870 5870 5869 5868 5867 5866 5865 5864 5863
5870 5870 5871 5872 5872 5873 5873 5873 5874 5874 5874 5875 5875 5875 5875 5875 5876 5876 5875 5875 5875 5874 5874 5873 5873 5872 5872 5872 5872 5871 5870 5870 5869 5868 5867 5866 5866 5865 5864 5863 5862 5861 5860
5867 5867 5868 5869 5869 5870 5870 5870 5871 5871 5871 5872 5872 5872 5872 5872 5872 5872 5872 5872 5872 5871 5871 5870 5870 5870 5869 5869 5869 5868 5867 5867 5866 5865 5864 5863 5862 5861 5861 5860 5859 5858 5857
5864 5865 5865 5866 5866 5866 5867 5867 5868 5868 5868 5868 5868 5868 5868 5868 5868 5869 5869 5868 5868 5868 5868 5867 5867 5866 5866 5865 5865 5865 5864 5863 5863 5861 5861 5860 5859 5858 5857 5856 5855 5854 5853
5861 5861 5862 5863 5863 5863 5864 5864 5865 5865 5865 5865 5865 5865 5865 5865 5865 5865 5865 5865 5864 5864 5864 5863 5863 5863 5862 5862 5861 5861 5860 5860 5859 5858 5857 5856 5855 5854 5853 5852 5851 5850 5849
5857 5858 5859 5859 5860 5860 5861 5861 5862 5862 5862 5862 5862 5862 5861 5861 5861 5861 5861 5861 5860 5860 5860 5859 5859 5859 5858 5858 5857 5857 5857 5856 5855 5854 5853 5852 5851 5850 5849 5848 5847 5846 5845
5853 5854 5855 5856 5857 5857 5858 5858 5859 5859 5859 5859 5858 5858 5858 5858 5857 5857 5857 5857 5856 5856 5856 5855 5855 5854 5854 5854 5853 5853 5853 5852 5851 5850 5849 5848 5847 5846 5845 5843 5842 5841 5840
5849 5850 5851 5852 5853 5854 5854 5855 5855 5855 5855 5855 5855 5854 5854 5854 5853 5853 5853 5852 5852 5851 5851 5851 5850 5850 5850 5849 5849 5849 5848 5848 5846 5846 5845 5844 5843 5842 5840 5839 5838 5837 5835
5844 5846 5847 5848 5849 5850 5850 5851 5851 5852 5852 5851 5851 5850 5850 5849 5849 5848 5848 5848 5847 5847 5846 5846 5846 5845 5845 5845 5845 5844 5844 5843 5842 5841 5841 5840 5838 5837 5835 5834 5833 5831 5830
5839 5841 5842 5843 5844 5845 5845 5846 5847 5847 5847 5847 5847 5846 5846 5845 5845 5844 5843 5843 5843 5842 5842 5841 5841 5841 5840 5840 5840 5840 5839 5838 5838 5837 5836 5835 5833 5832 5830 5829 5827 5826 5825
5834 5835 5836 5838 5839 5840 5840 5841 5841 5842 5842 5842 5842 5842 5842 5841 5841 5840 5839 5839 5838 5838 5837 5837 5836 5836 5836 5836 5836 5835 5835 5834 5833 5832 5831 5830 5828 5827 5825 5823 5822 5821 5819
5829 5830 5831 5832 5834 5834 5835 5835 5836 5837 5837 5837 5837 5837 5837 5837 5836 5836 5835 5835 5834 5834 5833 5832 5832 5831 5831 5831 5831 5830 5829 5828 5828 5827 5826 5825 5823 5821 5820 5818 5817 5815 5814
5824 5825 5826 5827 5828 5829 5830 5830 5831 5831 5832 5832 5832 5832 5832 5832 5832 5831 5831 5830 5830 5829 5828 5828 5827 5826 5826 5825 5825 5825 5824 5823 5822 5821 5820 5819 5817 5816 5814 5813 5811 5810 5808
5819 5820 5821 5822 5823 5824 5824 5825 5825 5826 5826 5826 5827 5827 5827 5827 5827 5826 5826 5825 5825 5824 5823 5823 5822 5821 5820 5820 5819 5819 5818 5817 5815 5814 5813 5812 5811 5809 5808 5806 5805 5803 5802
5813 5815 5816 5816 5817 5817 5818 5819 5820 5820 5820 5820 5821 5821 5821 5821 5821 5821 5820 5820 5819 5819 5818 5817 5816 5815 5814 5814 5813 5812 5811 5810 5808 5807 5806 5805 5804 5802 5801 5799 5798 5796 5795
5805 5807 5809 5810 5811 5812 5812 5813 5813 5814 5814 5814 5815 5815 5815 5815 5815 5815 5815 5814 5814 5813 5812 5811 5810 5809 5808 5807 5806 5805 5804 5802 5801 5800 5798 5797 5796 5794 5793 5792 5790 5789 5787
5798 5800 5801 5803 5805 5806 5807 5807 5807 5807 5808 5808 5808 5809 5809 5809 5809 5809 5809 5808 5807 5807 5806 5805 5804 5803 5801 5800 5799 5798 5796 5795 5793 5792 5790 5789 5788 5786 5785 5783 5782 5781 5779
5791 5792 5794 5795 5797 5799 5800 5800 5800 5801 5801 5802 5802 5802 5802 5802 5802 5802 5802 5801 5801 5800 5799 5798 5797 5796 5795 5793 5792 5790 5788 5787 5785 5783 5782 5780 5779 5777 5776 5774 5773 5772 5770
5783 5784 5786 5787 5789 5791 5792 5792 5793 5793 5794 5795 5795 5796 5796 5796 5795 5795 5795 5794 5794 5793 5792 5791 5790 5789 5787 5786 5784 5782 5780 5779 5777 5775 5773 5771 5770 5768 5767 5765 5763 5762 5760
5775 5776 5777 5779 5780 5782 5783 5784 5784 5786 5787 5788 5788 5788 5788 5788 5788 5787 5787 5786 5786 5786 5785 5784 5782 5781 5779 5778 5776 5774 5772 5770 5768 5766 5764 5762 5761 5759 5757 5755 5753 5751 5750
5766 5767 5769 5770 5772 5773 5774 5775 5776 5777 5778 5779 5780 5780 5780 5780 5780 5780 5779 5779 5778 5778 5777 5776 5775 5773 5772 5770 5768 5766 5764 5762 5760 5757 5755 5753 5751 5749 5747 5745 5743 5741 5738
5756 5758 5759 5761 5762 5764 5765 5767 5767 5767 5768 5769 5771 5772 5772 5772 5771 5771 5771 5771 5770 5770 5769 5768 5767 5765 5764 5762 5760 5758 5756 5754 5751 5748 5746 5744 5741 5739 5736 5734 5732 5729 5727
5746 5748 5749 5751 5752 5754 5755 5756 5757 5757 5758 5760 5762 5763 5763 5762 5762 5762 5762 5762 5762 5762 5761 5760 5759 5757 5756 5754 5752 5750 5748 5745 5743 5740 5737 5734 5731 5728 5725 5723 5720 5717 5715
5736 5737 5738 5739 5741 5742 5743 5745 5746 5748 5749 5751 5751 5752 5752 5752 5753 5753 5753 5753 5753 5753 5752 5751 5750 5749 5747 5745 5743 5741 5739 5736 5734 5731 5728 5725 5721 5718 5714 5711 5708 5705 5702
5724 5724 5725 5726 5728 5729 5731 5733 5734 5736 5738 5739 5740 5741 5741 5742 5743 5743 5744 5744 5744 5744 5743 5742 5741 5740 5738 5736 5734 5732 5730 5727 5724 5721 5719 5715 5711 5707 5703 5698 5695 5691 5688
5711 5711 5711 5712 5713 5714 5716 5719 5721 5723 5725 5727 5728 5729 5730 5730 5732 5733 5734 5734 5734 5734 5734 5733 5732 5731 5729 5727 5725 5723 5720 5717 5714 5711 5708 5705 5701 5696 5691 5685 5681 5677 5673